カタログに戻る

STARLINK-36930

運用中通信SSO
NORAD 68018·PAYLOAD·🇺🇸 United States

打ち上げ Mar 1, 2026 から Vandenberg Space Force Base

Loading…

次のパス (今後24時間)

TLE

最新Source: CelesTrak SupGP

元期: Sep 14, 2026, 21:39 UTC

1 68018C 26040D   26257.90256944 -.00089876  00000+0 -27922-2 0  2576
2 68018  97.2849 205.2482 0001686  87.3714 330.4899 15.33459213    11

AllMySatでSTARLINK-36930をリアルタイム追跡

Download on the App Store